星链-3616 (STARLINK-3616 )

导读

STARLINK-3616是美国太空探索技术公司(SpaceX)于2022年2月25日发射的星链(Starlink)卫星,属于星链低轨卫星互联网星座组网的组成部分。它运行在近地轨道(LEO),旨在为全球尤其是缺乏传统基础设施的偏远地区提供高速低延迟宽带互联网服务,助力实现全球覆盖的网络接入目标。

基本信息
目录编号:
51782
目录名称:
STARLINK-3616
国际标识:
2022-017Q
轨道中心:
EARTH
卫星名称:
星链-3616
卫星全名:
星链-3616 (STARLINK-3616 )
卫星状态:
在轨 (已飞行1659 天)
发射日期:
2022-02-25 UTC
国别 :
美国 (US)
星等 :
--
该卫星已列入 空间交会检测服务 Space Conjunction Data Service (SCDS) ,当前飞行风险评估等级: 无高风险
轨道信息
数据来源 国际轨道数据 AOE轨道数据
星历时间 2026-09-11T15:44:02+0800
13小时前
查看轨道信息
2026-09-06T23:00:00+0800
5天前
查看轨道信息
半长轴 6840.867km 6840.834km
偏心率 0.0001103 0.0001243
轨道倾角 53.159° 53.157°
近地点辐角 83.227° 84.734°
升交点赤经 220.971° 242.931°
平近点角 276.886° 234.216°
近地点 461.975km 461.846km
远地点 463.485km 463.548km
周期 93.848分钟 93.848分钟
每日圈数 15.343913 15.344022
详细信息
固有亮度:
5
最大亮度:
2.5
卫星平台:
Starlink v1.5
覆盖范围:
全球
运营商:
太空探索技术公司
运营商所在国:
美国
制造商(研发单位):
太空探索技术公司
制造商所在国:
美国
使用方式:
暂无
卫星简介
星链(Starlink)计划是由太空探索技术公司(SpaceX)提出的一个巨型低轨卫星互联网星座项目,计划在2019年至2024年间在太空搭建由约1.2万颗卫星组成的“星链”网络,其中1584颗将部署在地球上空550千米处的近地轨道,并从2020年开始工作。该卫星仍在工作。
2D轨道图
3D轨道图
轨道高度分析图
轨道倾角分析图
轨道综合分析图
查看轨道综合分析图
与全量物体交会距离演化趋势
与全量物体交会风险概率演化趋势